When you browse on this site, cookies collect data to enhance your experience and personalize the content and advertising you see.
Visit our Privacy Policy to learn more. By continuing to use the site, you agree to this use of cookies and data.
  • In United Kingdom
  • List of Countries
  • For 7 days
  • Water Temperature
  • Weather Map
  • Weather Widgets
  • user-avatar
    Login

    Hourly Weather Gabrovo

    Today, 22 October, Tuesday

    Time Temperature Precipitation Wind Pressure Humidity
    00:00 +14°C° 0 mm 1 mps 706 mmHg 69%
    01:00 +14°C° 0 mm 1 mps 706 mmHg 71%
    02:00 +12°C° 0 mm 0 mps 706 mmHg 72%
    03:00 +12°C° 0 mm 0 mps 706 mmHg 73%
    04:00 +12°C° 0 mm 0 mps 706 mmHg 74%
    05:00 +11°C° 0 mm 0 mps 706 mmHg 75%
    06:00 +12°C° 0 mm 0 mps 706 mmHg 72%
    07:00 +13°C° 0 mm 0 mps 707 mmHg 69%
    08:00 +14°C° 0 mm 0 mps 707 mmHg 65%
    09:00 +18°C° 0 mm 1 mps 707 mmHg 57%
    10:00 +20°C° 0 mm 1 mps 708 mmHg 49%
    11:00 +22°C° 0 mm 1 mps 708 mmHg 41%
    12:00 +23°C° 0 mm 1 mps 708 mmHg 39%
    13:00 +24°C° 0 mm 1 mps 708 mmHg 36%
    14:00 +24°C° 0 mm 2 mps 708 mmHg 34%
    15:00 +23°C° 0 mm 2 mps 707 mmHg 38%
    16:00 +22°C° 0 mm 1 mps 707 mmHg 43%
    17:00 +20°C° 0 mm 1 mps 707 mmHg 47%
    18:00 +19°C° 0 mm 1 mps 707 mmHg 50%
    19:00 +16°C° 0 mm 1 mps 707 mmHg 53%
    20:00 +15°C° 0 mm 1 mps 707 mmHg 55%
    21:00 +14°C° 0 mm 1 mps 707 mmHg 58%
    22:00 +14°C° 0 mm 1 mps 707 mmHg 61%
    23:00 +13°C° 0 mm 1 mps 707 mmHg 64%

    Tomorrow, 23 October, Wednesday

    Time Temperature Precipitation Wind Pressure Humidity
    00:00 +12°C° 0 mm 0 mps 706 mmHg 66%
    01:00 +12°C° 0 mm 0 mps 706 mmHg 68%
    02:00 +11°C° 0 mm 0 mps 706 mmHg 71%
    03:00 +11°C° 0 mm 0 mps 706 mmHg 71%
    04:00 +11°C° 0 mm 0 mps 706 mmHg 71%
    05:00 +11°C° 0 mm 1 mps 706 mmHg 71%
    06:00 +11°C° 0 mm 0 mps 706 mmHg 68%
    07:00 +12°C° 0 mm 0 mps 706 mmHg 64%
    08:00 +13°C° 0 mm 0 mps 706 mmHg 60%
    09:00 +15°C° 0 mm 0 mps 707 mmHg 53%
    10:00 +19°C° 0 mm 1 mps 707 mmHg 45%
    11:00 +22°C° 0 mm 1 mps 707 mmHg 37%
    12:00 +22°C° 0 mm 1 mps 707 mmHg 34%
    13:00 +23°C° 0 mm 1 mps 707 mmHg 30%
    14:00 +24°C° 0 mm 2 mps 706 mmHg 27%
    15:00 +22°C° 0 mm 1 mps 706 mmHg 30%
    16:00 +21°C° 0 mm 1 mps 705 mmHg 34%
    17:00 +19°C° 0 mm 1 mps 705 mmHg 37%
    18:00 +18°C° 0 mm 1 mps 705 mmHg 39%
    19:00 +16°C° 0 mm 1 mps 705 mmHg 42%
    20:00 +15°C° 0 mm 1 mps 705 mmHg 45%
    21:00 +14°C° 0 mm 1 mps 705 mmHg 47%
    22:00 +14°C° 0 mm 1 mps 705 mmHg 49%
    23:00 +13°C° 0 mm 1 mps 705 mmHg 51%

    Day after tomorrow, 24 October, Thursday

    Time Temperature Precipitation Wind Pressure Humidity
    00:00 +13°C° 0 mm 1 mps 705 mmHg 53%
    01:00 +12°C° 0 mm 1 mps 705 mmHg 55%
    02:00 +11°C° 0 mm 0 mps 704 mmHg 57%
    03:00 +11°C° 0 mm 0 mps 704 mmHg 57%
    04:00 +10°C° 0 mm 0 mps 704 mmHg 58%
    05:00 +10°C° 0 mm 0 mps 704 mmHg 58%
    06:00 +11°C° 0 mm 0 mps 704 mmHg 56%
    07:00 +12°C° 0 mm 0 mps 704 mmHg 53%
    08:00 +12°C° 0 mm 0 mps 704 mmHg 51%
    09:00 +15°C° 0 mm 0 mps 705 mmHg 45%
    10:00 +17°C° 0 mm 0 mps 705 mmHg 39%
    11:00 +21°C° 0 mm 1 mps 705 mmHg 33%
    12:00 +22°C° 0 mm 1 mps 705 mmHg 32%
    13:00 +22°C° 0 mm 1 mps 705 mmHg 30%
    14:00 +23°C° 0 mm 1 mps 705 mmHg 28%
    15:00 +22°C° 0 mm 1 mps 704 mmHg 32%
    16:00 +20°C° 0 mm 1 mps 704 mmHg 37%
    17:00 +19°C° 0 mm 1 mps 703 mmHg 41%
    18:00 +16°C° 0 mm 1 mps 703 mmHg 43%
    19:00 +15°C° 0 mm 1 mps 703 mmHg 46%
    20:00 +14°C° 0 mm 1 mps 703 mmHg 49%
    21:00 +13°C° 0 mm 1 mps 703 mmHg 51%
    22:00 +13°C° 0 mm 1 mps 703 mmHg 52%
    23:00 +12°C° 0 mm 1 mps 704 mmHg 54%

    25 October, Friday

    Time Temperature Precipitation Wind Pressure Humidity
    00:00 +12°C° 0 mm 1 mps 703 mmHg 56%
    01:00 +12°C° 0 mm 1 mps 703 mmHg 58%
    02:00 +10°C° 0 mm 0 mps 703 mmHg 59%
    03:00 +10°C° 0 mm 0 mps 703 mmHg 60%
    04:00 +10°C° 0 mm 0 mps 703 mmHg 60%
    05:00 +9°C° 0 mm 0 mps 703 mmHg 61%
    06:00 +10°C° 0 mm 0 mps 703 mmHg 58%
    07:00 +11°C° 0 mm 0 mps 704 mmHg 56%
    08:00 +12°C° 0 mm 0 mps 704 mmHg 53%
    09:00 +14°C° 0 mm 0 mps 704 mmHg 47%
    10:00 +16°C° 0 mm 0 mps 705 mmHg 41%
    11:00 +18°C° 0 mm 0 mps 705 mmHg 35%
    12:00 +21°C° 0 mm 1 mps 705 mmHg 33%
    13:00 +22°C° 0 mm 1 mps 705 mmHg 31%
    14:00 +23°C° 0 mm 1 mps 705 mmHg 29%
    15:00 +21°C° 0 mm 1 mps 705 mmHg 32%
    16:00 +20°C° 0 mm 1 mps 704 mmHg 36%
    17:00 +18°C° 0 mm 1 mps 704 mmHg 39%
    18:00 +16°C° 0 mm 1 mps 704 mmHg 41%
    19:00 +15°C° 0 mm 1 mps 704 mmHg 44%
    20:00 +14°C° 0 mm 1 mps 704 mmHg 46%
    21:00 +13°C° 0 mm 1 mps 704 mmHg 46%
    22:00 +13°C° 0 mm 1 mps 704 mmHg 47%
    23:00 +12°C° 0 mm 1 mps 704 mmHg 48%

    26 October, Saturday

    Time Temperature Precipitation Wind Pressure Humidity
    00:00 +11°C° 0 mm 0 mps 704 mmHg 49%
    01:00 +11°C° 0 mm 0 mps 704 mmHg 50%
    02:00 +10°C° 0 mm 0 mps 704 mmHg 51%
    03:00 +10°C° 0 mm 0 mps 704 mmHg 52%
    04:00 +10°C° 0 mm 0 mps 704 mmHg 53%
    05:00 +9°C° 0 mm 0 mps 704 mmHg 53%
    06:00 +10°C° 0 mm 0 mps 704 mmHg 52%
    07:00 +11°C° 0 mm 0 mps 705 mmHg 50%
    08:00 +12°C° 0 mm 0 mps 705 mmHg 49%
    09:00 +14°C° 0 mm 0 mps 706 mmHg 43%
    10:00 +16°C° 0 mm 0 mps 706 mmHg 37%
    11:00 +19°C° 0 mm 0 mps 706 mmHg 31%
    12:00 +21°C° 0 mm 1 mps 706 mmHg 30%
    13:00 +22°C° 0 mm 1 mps 706 mmHg 29%
    14:00 +22°C° 0 mm 1 mps 706 mmHg 27%
    15:00 +21°C° 0 mm 1 mps 705 mmHg 31%
    16:00 +19°C° 0 mm 1 mps 705 mmHg 35%
    17:00 +18°C° 0 mm 1 mps 704 mmHg 39%
    18:00 +16°C° 0 mm 1 mps 704 mmHg 42%
    19:00 +15°C° 0 mm 1 mps 704 mmHg 45%
    20:00 +13°C° 0 mm 1 mps 704 mmHg 47%
    21:00 +13°C° 0 mm 1 mps 704 mmHg 49%
    22:00 +13°C° 0 mm 1 mps 704 mmHg 50%
    23:00 +12°C° 0 mm 1 mps 704 mmHg 51%

    27 October, Sunday

    Time Temperature Precipitation Wind Pressure Humidity
    00:00 +11°C° 0 mm 0 mps 704 mmHg 52%
    01:00 +11°C° 0 mm 0 mps 704 mmHg 53%
    02:00 +10°C° 0 mm 0 mps 704 mmHg 54%
    03:00 +10°C° 0 mm 0 mps 704 mmHg 54%
    04:00 +10°C° 0 mm 0 mps 703 mmHg 54%
    05:00 +10°C° 0 mm 1 mps 703 mmHg 55%
    06:00 +10°C° 0 mm 0 mps 703 mmHg 53%
    07:00 +11°C° 0 mm 0 mps 704 mmHg 51%
    08:00 +12°C° 0 mm 0 mps 704 mmHg 49%
    09:00 +14°C° 0 mm 0 mps 704 mmHg 43%
    10:00 +18°C° 0 mm 1 mps 705 mmHg 36%
    11:00 +21°C° 0 mm 1 mps 705 mmHg 30%
    12:00 +22°C° 0 mm 1 mps 705 mmHg 28%
    13:00 +22°C° 0 mm 1 mps 704 mmHg 27%
    14:00 +23°C° 0 mm 1 mps 704 mmHg 25%
    15:00 +22°C° 0 mm 1 mps 704 mmHg 29%
    16:00 +20°C° 0 mm 1 mps 703 mmHg 32%
    17:00 +18°C° 0 mm 1 mps 703 mmHg 36%
    18:00 +16°C° 0 mm 1 mps 703 mmHg 38%
    19:00 +15°C° 0 mm 1 mps 703 mmHg 40%
    20:00 +14°C° 0 mm 1 mps 703 mmHg 42%
    21:00 +14°C° 0 mm 1 mps 703 mmHg 42%
    22:00 +13°C° 0 mm 1 mps 703 mmHg 42%
    23:00 +13°C° 0 mm 1 mps 704 mmHg 42%
    Show more